TimePDT,TemperatureF,Dew PointF,Humidity,Sea Level PressureIn,VisibilityMPH,Wind Direction,Wind SpeedMPH,Gust SpeedMPH,PrecipitationIn,Events,Conditions,WindDirDegrees,DateUTC
12:53 AM,82.9,63.0,51,29.80,10.0,South,5.8,-,N/A,,Clear,180,2014-08-09 07:53:00
1:53 AM,79.0,63.0,58,29.78,10.0,East,3.5,-,N/A,,Clear,80,2014-08-09 08:53:00
2:53 AM,75.9,63.0,64,29.79,10.0,ENE,3.5,-,N/A,,Clear,60,2014-08-09 09:53:00
3:53 AM,73.9,61.0,64,29.80,10.0,East,6.9,-,N/A,,Clear,90,2014-08-09 10:53:00
4:53 AM,75.0,61.0,62,29.82,10.0,Calm,Calm,-,N/A,,Clear,0,2014-08-09 11:53:00
5:53 AM,71.1,62.1,73,29.84,10.0,West,4.6,-,N/A,,Clear,260,2014-08-09 12:53:00
6:53 AM,70.0,61.0,73,29.86,10.0,West,4.6,-,N/A,,Clear,280,2014-08-09 13:53:00
7:53 AM,78.1,64.9,64,29.88,10.0,North,4.6,-,N/A,,Clear,350,2014-08-09 14:53:00
8:53 AM,84.0,66.0,55,29.89,10.0,Calm,Calm,-,N/A,,Clear,0,2014-08-09 15:53:00
10:53 AM,90.0,62.1,39,29.90,10.0,Calm,Calm,-,N/A,,Clear,0,2014-08-09 17:53:00
11:53 AM,95.0,60.1,31,29.88,10.0,Variable,5.8,-,N/A,,Clear,0,2014-08-09 18:53:00
12:53 PM,100.0,52.0,20,29.86,10.0,Variable,5.8,-,N/A,,Clear,0,2014-08-09 19:53:00
1:53 PM,102.9,53.1,19,29.84,10.0,SSE,9.2,25.3,N/A,,Clear,160,2014-08-09 20:53:00
2:53 PM,104.0,53.1,18,29.80,10.0,ESE,8.1,-,N/A,,Clear,110,2014-08-09 21:53:00
3:53 PM,105.1,45.0,13,29.78,10.0,East,11.5,-,N/A,,Clear,100,2014-08-09 22:53:00
4:53 PM,104.0,45.0,14,29.76,10.0,East,11.5,-,N/A,,Clear,100,2014-08-09 23:53:00
5:53 PM,104.0,48.0,15,29.76,10.0,ESE,10.4,-,N/A,,Clear,110,2014-08-10 00:53:00
6:53 PM,100.9,52.0,19,29.76,10.0,ESE,11.5,-,N/A,,Clear,120,2014-08-10 01:53:00
7:53 PM,96.8,48.2,19,29.76,10.0,SE,8.1,-,N/A,,Clear,140,2014-08-10 02:53:00
9:53 PM,93.0,53.1,26,29.81,10.0,South,9.2,-,N/A,,Clear,170,2014-08-10 04:53:00
10:53 PM,89.1,53.1,29,29.81,10.0,South,6.9,-,N/A,,Clear,180,2014-08-10 05:53:00
11:53 PM,88.0,54.0,31,29.81,10.0,SSE,4.6,-,N/A,,Clear,160,2014-08-10 06:53:00